Regional Weather Roundup
Issued by NWS

Home | Current Version | Previous Version | Text Only | Print | Product List | Glossary On
Versions: 1 2 3 4 5 6 7 8 9 10 11 12 13 14 15 16 17 18 19 20 21 22 23 24 25 26 27 28 29 30 31 32 33 34 35 36 37 38 39 40 41 42 43 44 45 46 47 48 49 50
000
ASUS43 KDTX 251301
RWRMI
MICHIGAN HOURLY REGIONAL WEATHER ROUNDUP
NATIONAL WEATHER SERVICE DETROIT/PONTIAC MI
900 AM EDT SUN SEP 25 2016

NOTE: "FAIR" INDICATES FEW OR NO CLOUDS BELOW 12,000 FEET WITH NO
SIGNIFICANT WEATHER AND/OR OBSTRUCTION TO VISIBILITY.

MIZ047>049-052>055-059>063-066>070-074>076-081>083-251400-
SOUTHEAST LOWER MICHIGAN

CITY           SKY/WX    TMP DP  RH WIND       PRES   REMARKS
ADRIAN         SUNNY     57  49  74 SE3       30.21S
ALMA           SUNNY     51  51  99 CALM      30.21S
ANN ARBOR      SUNNY     57  51  80 N3        30.21R
BAD AXE        SUNNY     54  50  86 S6        30.23S
CARO           SUNNY     50  47  88 CALM      30.22S
DETROIT CITY   SUNNY     57  51  80 CALM      30.21F
DETROIT        PTSUNNY   57  50  77 N3        30.22R
FLINT          SUNNY     52  48  86 E3        30.22S
GROSSE ILE     SUNNY     61  52  71 E5        30.20S
HILLSDALE        N/A     55  46  71 SE7       30.19F HAZE
HOWELL         SUNNY     54  51  90 SE3       30.21S

CITY           SKY/WX    TMP DP  RH WIND       PRES   REMARKS
JACKSON        SUNNY     56  50  80 S6        30.19F
LAMBERTVILLE   SUNNY     59  51  75 S3        30.20S
LANSING        SUNNY     56  48  74 SE5       30.21S
LAPEER         FAIR      51  46  83 CALM      30.23S
MASON          SUNNY     54  50  85 SE6       30.20F
MONROE         SUNNY     56  51  85 CALM      30.19F
PONTIAC        MOSUNNY   55  49  80 E6        30.21S
PORT HOPE        N/A     59  48  67 VRB3      30.22R
PORT HURON     SUNNY     54  48  82 E5        30.23F
TRI CITIES     CLOUDY    52  48  86 SE7       30.22S
MIDLAND        FAIR      51  50  95 CALM      30.20F
TROY           SUNNY     56  47  73 NE3       30.23F
SAGINAW HB     SUNNY     52  46  82 SE3       30.21F
$$
MIZ043>046-050>051-056>058-064>065-071>073-077>080-251400-
SOUTHWEST LOWER MICHIGAN

CITY           SKY/WX    TMP DP  RH WIND       PRES   REMARKS
BATTLE CREEK   SUNNY     58  51  78 S9        30.19S
BENTON HARBOR  SUNNY     61  53  75 SE10      30.14S
BIG RAPIDS     MOSUNNY   52  49  90 E3        30.18S
COLDWATER      SUNNY     58  47  69 SE7       30.18F
FREMONT        CLOUDY    55  49  81 SE7       30.16F
HOLLAND        CLOUDY    58  54  86 SE7       30.16S
GRAND RAPIDS   PTSUNNY   56  50  80 SE7       30.18S
IONIA          FAIR      52  49  90 E6        30.19S
KALAMAZOO      CLOUDY    58  51  78 VRB6      30.19R
LUDINGTON      CLOUDY    56  50  81 E5        30.13F
MARSHALL       SUNNY     56  51  81 SE5       30.18F
MUSKEGON       CLOUDY    57  52  83 SE8       30.16S
SOUTH HAVEN    CLOUDY    61  56  83 SE7       30.16S
$$
MIZ016>042-251400-
NORTHERN LOWER MICHIGAN

CITY           SKY/WX    TMP DP  RH WIND       PRES   REMARKS
ALPENA         PTSUNNY   49  45  86 CALM      30.24R
BEAVER ISLAND  MOSUNNY   59  52  79 SE3       30.16S
BELLAIRE       PTSUNNY   57  49  75 S3        30.18S
CADILLAC       MOSUNNY   55  46  72 SE7       30.17F
CHARLEVOIX     MOSUNNY   52  47  81 SE6       30.20S
FRANKFORT      CLOUDY    58  46  65 SE9       30.14S
GAYLORD        MOSUNNY   50  44  80 SE7       30.20F
GRAYLING       MOSUNNY   45  44  94 CALM      30.20F
HARBOR SPRINGS SUNNY     52  46  82 E7        30.18F
HOUGHTON LAKE  MOSUNNY   49  46  90 E5        30.21F
MANISTEE       CLOUDY    55  49  80 E5        30.14F
OSCODA         SUNNY     49  47  93 CALM      30.22S
PELLSTON       PTSUNNY   50  46  86 S5        30.19F
ROGERS CITY    SUNNY     56  47  72 S5        30.23S
TRAVERSE CITY  PTSUNNY   57  47  69 VRB6      30.15F
$$
MIZ007>008-015-251400-
EASTERN UPPER MICHIGAN

CITY           SKY/WX    TMP DP  RH WIND       PRES   REMARKS
KINROSS        CLOUDY    55  48  77 SE10      30.20F
MACKINAC ISLAN SUNNY     57  48  73 SE6       30.19F
NEWBERRY       CLOUDY    52  50  93 CALM      30.16S
S. S. MARIE    CLOUDY    54  51  90 E5        30.19F
MUNISING         N/A     58  55  90 S9        30.09F
$$
MIZ004>006-011>014-085-251400-
CENTRAL UPPER MICHIGAN

CITY           SKY/WX    TMP DP  RH WIND       PRES   REMARKS
MANISTIQUE     CLOUDY    62  54  75 S10       30.13F
ESCANABA       CLOUDY    64  57  78 S10       30.10F
MENOMINEE      CLOUDY    63  58  83 S9        30.08F
SAWYER-GWINN   CLOUDY    57  54  88 S10       30.09F
$$
MIZ001>003-009>011-084-251400-
WESTERN UPPER MICHIGAN

CITY           SKY/WX    TMP DP  RH WIND       PRES   REMARKS
IRON MOUNTAIN  CLOUDY    59  54  83 SE8       30.07F
HOUGHTON       CLOUDY    60  53  77 SE10      30.00F
COPPER HARBOR    N/A     63  57  81 SW15G26   29.99F
IRONWOOD       CLOUDY    62  58  86 S14G22    29.93F
$$

ABBREVIATIONS USED IN REMARKS
   TC - TEMPERATURE IN CELSIUS
  WCI - WIND CHILL INDEX
   HX - HEAT INDEX
  VSB - VISIBILITY





USA.gov is the U.S. government's official web portal to all federal, state and local government web resources and services.